Wind_Speed
5 5 5 4 4 4 4 4 3 3 3 2 2 1 1 1 2 3 3 4 4 5 5 5 6 6 6 6 5 6 7 7 8 8 8 9 8 9 10 10 10 10 12
5 5 5 5 4 4 3 3 3 3 3 3 2 2 2 2 2 3 3 4 5 5 6 6 6 7 7 7 7 8 8 8 8 8 9 11 10 10 10 11 11 11 11
5 5 5 5 4 4 4 3 3 3 3 3 3 4 3 3 3 3 3 4 5 5 6 6 7 7 8 8 8 9 9 9 9 9 9 10 10 11 11 12 11 12 12
6 5 5 5 4 5 4 5 4 4 4 4 4 4 4 4 4 4 4 5 5 6 7 7 8 8 9 9 9 9 9 10 9 10 10 10 11 11 11 12 12 13 13
6 6 6 5 5 6 5 5 5 4 4 5 5 5 4 5 5 5 5 6 6 7 8 8 9 9 9 10 10 10 10 10 10 10 11 11 11 12 12 12 12 13 13
6 7 8 7 6 7 7 5 6 6 6 6 6 6 5 5 5 6 6 7 7 8 8 9 10 10 10 10 11 11 11 11 11 11 11 12 12 12 13 13 13 13 13
7 8 8 8 8 7 7 7 8 7 7 7 7 6 5 6 6 6 7 8 8 9 9 10 10 11 11 11 11 11 11 11 12 12 13 13 13 13 13 14 14 14 14
8 8 8 8 8 8 8 8 8 8 7 7 6 6 7 7 7 7 8 9 9 10 10 10 11 11 11 11 12 11 12 12 12 12 13 13 12 12 13 14 15 15 15
8 9 9 8 8 9 9 9 8 8 8 7 7 7 8 8 8 8 9 10 10 11 11 11 11 11 11 12 12 12 13 13 13 12 12 12 11 12 13 13 14 15 15
8 8 8 8 9 9 9 9 9 8 9 8 8 9 9 9 10 10 11 11 11 12 12 12 11 12 12 13 13 13 14 14 13 13 12 12 11 12 13 13 14 15 15
9 9 9 10 9 9 9 8 9 9 10 10 10 10 10 11 11 12 12 12 12 13 13 12 12 12 13 13 14 14 14 15 14 14 13 12 12 12 13 14 14 14 15
10 9 10 10 9 9 8 9 9 10 11 11 11 11 11 12 13 13 13 13 13 13 13 14 14 14 14 14 14 15 15 15 15 15 14 13 14 14 14 14 15 15 15
12 11 10 10 10 9 10 10 10 11 12 12 13 13 14 14 14 15 15 14 14 14 14 14 14 14 14 15 15 15 15 15 16 16 16 15 16 16 16 15 16 16 16
11 11 11 10 10 10 10 11 11 12 13 13 12 14 15 16 16 16 16 15 15 14 15 15 15 14 15 15 15 16 16 16 17 17 17 17 17 17 18 17 17 17 17
11 11 11 11 12 11 12 13 13 13 13 13 13 14 15 16 17 17 17 17 16 15 15 16 15 15 15 16 16 16 17 16 17 17 17 18 18 18 18 19 18 19 19
12 12 13 13 14 14 14 14 14 14 14 14 15 15 16 17 17 18 18 18 17 16 16 16 16 16 16 16 17 17 17 17 17 18 19 19 19 19 19 20 20 20 20
14 14 13 14 14 14 14 14 15 15 15 15 15 15 15 16 16 17 17 17 16 16 17 17 17 17 17 17 17 17 18 18 18 18 19 20 20 20 20 20 21 21 20
14 13 14 15 15 14 15 15 16 16 16 16 15 15 15 16 16 16 16 17 16 16 16 16 16 17 18 18 18 18 18 19 19 19 19 20 20 21 21 21 21 22 22
14 14 15 16 16 16 16 16 16 16 16 16 15 16 16 16 16 17 17 17 16 16 15 16 16 17 17 17 18 19 19 19 20 19 19 20 20 20 21 22 22 22 22
15 15 16 17 17 17 17 16 16 16 15 16 16 16 15 16 16 17 17 16 16 16 16 16 16 16 17 17 18 19 20 20 20 20 19 19 21 22 22 22 22 23 22
16 17 17 17 17 17 17 17 16 16 16 16 16 17 16 16 16 16 16 16 17 17 16 15 16 16 17 18 18 18 19 19 20 20 20 20 20 21 21 22 22 22 23
18 18 18 18 17 17 18 17 17 16 17 17 17 17 17 16 16 16 15 16 16 16 16 16 16 16 16 17 17 18 19 19 20 21 21 20 20 20 20 22 22 22 22
18 18 18 17 18 18 18 18 17 17 17 17 17 17 17 17 17 16 15 16 16 15 16 17 17 17 17 17 18 18 18 18 19 20 20 21 21 21 21 21 21 22 22
17 17 17 17 18 18 19 18 18 17 17 17 17 17 18 17 16 16 17 17 18 18 17 17 17 17 17 17 17 18 18 18 19 19 21 21 21 21 21 21 22 22 23
17 17 17 17 18 18 19 19 18 17 17 16 16 16 17 17 17 17 17 17 17 18 18 17 17 17 17 17 17 18 19 19 19 19 20 21 21 22 22 22 23 23 23
17 17 18 19 19 19 19 20 20 19 18 18 17 16 16 17 17 17 17 17 17 17 18 17 17 17 17 17 18 18 18 19 20 20 20 20 21 22 22 22 23 24 24
Wind_Direction
327 330 337 326 316 305 294 284 280 274 270 258 264 289 291 274 253 249 256 252 248 246 244 246 249 250 248 241 246 244 242 237 235 230 232 228 222 222 224 224 223 225 221
326 325 332 332 316 307 301 301 300 284 275 267 271 276 275 273 256 254 256 259 256 252 255 258 254 253 252 250 253 251 248 244 241 238 238 226 225 227 226 223 222 223 223
320 323 328 328 319 311 300 295 301 286 282 270 267 271 265 262 257 254 258 260 260 258 260 263 262 259 257 255 253 253 252 253 246 245 240 235 236 230 225 225 222 227 230
311 317 318 317 314 316 301 286 286 285 282 274 266 268 263 260 259 262 264 264 262 261 263 264 267 266 260 260 258 256 254 251 255 253 244 246 239 227 224 226 229 230 231
306 307 306 305 301 304 298 290 284 284 280 275 270 263 260 257 256 262 266 265 264 265 265 265 265 266 264 263 261 257 254 252 255 252 252 248 240 231 230 228 229 228 226
300 303 300 300 298 298 294 288 292 283 276 273 269 262 259 264 262 263 264 265 265 266 265 266 265 266 263 262 260 258 257 254 255 253 250 245 241 235 231 229 228 225 226
302 301 301 296 291 288 289 288 291 286 275 270 269 270 268 268 268 267 268 269 269 268 267 267 268 268 264 261 259 258 256 255 254 253 249 245 243 238 231 229 226 228 228
303 299 297 293 288 285 284 284 287 283 276 270 271 270 269 267 268 269 270 269 270 271 271 269 269 265 262 261 259 258 258 254 253 254 250 245 241 234 232 232 229 226 225
297 295 297 292 284 280 278 279 278 275 273 272 273 271 271 268 268 270 273 269 269 270 271 273 268 264 262 263 261 259 256 256 257 256 250 248 245 237 231 232 231 227 225
295 297 298 294 288 283 277 277 273 272 272 271 272 273 273 272 269 271 275 273 270 268 269 269 265 265 266 265 261 258 256 254 252 253 252 249 248 244 237 236 235 233 233
305 302 302 300 295 286 283 280 275 274 274 271 274 277 276 276 275 274 273 274 275 269 266 264 264 265 266 264 261 258 257 253 252 250 250 250 247 244 241 239 238 237 236
298 300 302 302 300 291 288 283 280 279 277 275 277 278 276 279 277 276 275 277 276 270 266 263 263 265 265 263 261 257 254 253 252 252 252 252 248 244 241 240 238 239 239
294 295 297 300 301 296 292 288 283 282 282 282 284 280 281 282 278 279 278 280 275 270 268 264 260 262 263 263 260 255 252 250 251 252 252 250 249 247 244 242 240 241 242
291 294 294 296 294 293 293 293 291 290 287 285 286 285 284 283 279 277 277 276 273 269 267 265 261 262 262 260 257 254 252 251 252 251 251 251 250 248 247 246 244 243 242
286 289 288 289 288 289 291 294 294 295 291 285 281 283 285 284 281 279 279 276 273 271 267 262 262 263 262 259 257 255 254 251 252 251 251 252 253 249 246 245 244 244 244
281 287 290 289 287 287 288 289 290 294 292 287 282 281 283 283 282 282 278 277 274 269 266 265 261 262 261 261 258 257 255 253 253 253 253 254 254 252 250 248 247 248 246
279 283 287 291 290 287 285 286 291 293 294 291 285 283 284 285 284 282 280 275 274 271 270 268 264 262 261 260 258 256 254 253 253 254 256 256 257 255 254 252 250 250 250
277 281 285 289 290 288 287 286 288 290 291 291 287 285 285 284 284 282 279 276 275 273 271 269 266 263 263 262 259 256 255 255 253 253 255 257 258 256 256 254 253 252 251
277 280 286 288 288 286 286 287 289 291 291 291 289 285 285 285 284 284 283 279 277 273 271 269 268 265 264 263 259 257 256 256 256 255 257 258 256 256 256 256 254 253 252
281 281 284 286 286 284 284 287 288 289 290 289 287 286 286 288 285 282 281 278 274 273 270 269 268 265 265 265 260 257 257 257 257 257 257 260 258 257 257 256 254 253 251
280 283 286 287 286 285 285 285 286 287 287 286 286 285 286 288 285 285 281 276 272 271 271 271 270 267 265 266 263 259 257 258 258 259 258 260 260 259 258 257 255 253 251
282 283 286 288 288 287 287 286 285 283 283 284 285 285 285 285 285 287 283 277 273 272 270 271 270 268 266 266 265 262 259 259 258 259 259 260 261 261 260 258 255 254 251
282 285 284 287 288 286 286 286 285 283 283 284 286 285 285 284 286 287 286 281 275 272 272 270 268 267 268 266 265 262 261 262 262 260 260 262 262 262 261 258 256 255 253
283 285 286 286 287 283 283 284 282 281 283 284 286 285 285 287 288 287 285 281 276 274 272 272 269 266 267 266 265 263 262 263 263 262 262 263 263 262 261 259 260 257 255
283 283 284 285 287 286 285 283 282 281 281 283 286 285 284 286 288 288 287 285 280 277 274 271 267 265 267 267 266 264 263 263 264 263 264 263 261 261 260 259 259 259 258
284 284 286 287 287 287 286 282 281 280 279 281 282 283 284 287 290 289 288 285 279 276 275 272 267 265 266 269 268 266 266 265 265 265 265 265 263 262 260 259 259 259 259
Height
5889 5888 5887 5887 5886 5885 5885 5884 5884 5884 5883 5883 5883 5883 5882 5882 5882 5882 5882 5882 5882 5883 5883 5883 5884 5883 5884 5883 5883 5884 5884 5885 5885 5886 5886 5887 5887 5888 5889 5890 5890 5891 5892
5888 5887 5886 5885 5885 5884 5883 5883 5883 5882 5882 5882 5882 5881 5881 5881 5881 5881 5881 5881 5881 5881 5882 5882 5882 5882 5882 5882 5882 5882 5883 5883 5884 5884 5885 5885 5885 5886 5887 5888 5889 5890 5891
5886 5885 5885 5884 5883 5883 5882 5882 5881 5881 5880 5880 5880 5880 5880 5879 5879 5879 5879 5879 5880 5880 5880 5880 5880 5880 5880 5880 5880 5880 5881 5881 5882 5882 5883 5883 5884 5884 5886 5887 5887 5888 5889
5885 5884 5883 5883 5882 5881 5881 5880 5880 5879 5879 5879 5878 5878 5878 5878 5878 5878 5878 5878 5878 5878 5878 5878 5878 5878 5878 5879 5879 5879 5879 5880 5880 5880 5881 5881 5882 5883 5884 5885 5886 5886 5888
5884 5883 5882 5881 5880 5880 5879 5878 5878 5877 5877 5877 5876 5876 5876 5876 5876 5876 5876 5876 5876 5876 5876 5876 5876 5876 5876 5877 5877 5877 5877 5878 5878 5878 5878 5879 5880 5881 5882 5883 5883 5884 5886
5882 5881 5880 5879 5879 5878 5876 5876 5876 5875 5875 5875 5875 5874 5874 5874 5874 5873 5873 5873 5874 5874 5874 5874 5874 5874 5874 5874 5875 5875 5875 5875 5875 5876 5877 5877 5878 5879 5880 5881 5882 5883 5884
5880 5879 5878 5877 5877 5876 5875 5874 5874 5874 5873 5873 5873 5872 5872 5872 5872 5871 5871 5871 5871 5871 5871 5871 5871 5871 5872 5872 5872 5872 5873 5873 5873 5874 5874 5875 5875 5876 5878 5879 5880 5881 5882
5879 5877 5876 5875 5875 5874 5874 5873 5872 5872 5871 5871 5871 5871 5870 5870 5869 5869 5869 5869 5869 5869 5869 5869 5869 5869 5869 5869 5869 5870 5870 5870 5870 5871 5872 5872 5873 5874 5875 5876 5877 5878 5879
5876 5875 5874 5873 5873 5872 5872 5871 5870 5870 5869 5869 5869 5869 5868 5867 5867 5867 5867 5866 5866 5866 5866 5866 5866 5866 5866 5866 5867 5867 5868 5868 5868 5868 5869 5870 5870 5871 5872 5873 5874 5876 5877
5875 5874 5873 5872 5871 5870 5869 5869 5868 5868 5868 5867 5867 5866 5866 5865 5864 5864 5864 5864 5863 5863 5862 5862 5862 5863 5863 5863 5863 5864 5864 5865 5865 5865 5866 5867 5868 5868 5869 5870 5872 5873 5874
5874 5873 5872 5870 5869 5868 5867 5867 5866 5866 5865 5865 5864 5864 5863 5862 5861 5861 5861 5860 5860 5859 5859 5859 5859 5859 5859 5860 5860 5860 5861 5861 5862 5862 5863 5864 5865 5866 5867 5868 5869 5870 5872
5872 5871 5870 5869 5868 5867 5866 5865 5864 5863 5863 5862 5861 5861 5860 5859 5858 5857 5857 5856 5856 5856 5855 5855 5855 5855 5856 5856 5857 5857 5858 5858 5858 5859 5860 5861 5862 5863 5864 5865 5866 5867 5868
5870 5869 5868 5867 5866 5865 5864 5862 5861 5861 5860 5859 5858 5857 5857 5856 5855 5854 5853 5852 5852 5852 5851 5851 5851 5851 5852 5852 5853 5853 5854 5855 5855 5856 5857 5858 5859 5860 5860 5861 5863 5864 5865
5868 5867 5866 5865 5863 5862 5861 5860 5859 5858 5857 5856 5855 5854 5853 5852 5851 5850 5850 5849 5848 5847 5847 5847 5847 5847 5848 5848 5849 5850 5850 5851 5851 5852 5853 5855 5855 5856 5857 5858 5859 5860 5862
5865 5864 5863 5862 5861 5859 5858 5857 5856 5855 5854 5853 5852 5851 5850 5848 5847 5846 5845 5845 5844 5843 5843 5843 5843 5843 5844 5845 5845 5846 5846 5847 5848 5849 5849 5851 5851 5852 5853 5854 5855 5856 5858
5862 5861 5860 5859 5857 5856 5855 5853 5852 5851 5850 5849 5848 5847 5846 5844 5843 5842 5841 5840 5839 5838 5838 5838 5838 5839 5840 5840 5841 5842 5842 5843 5844 5845 5845 5846 5847 5848 5849 5850 5851 5852 5853
5859 5858 5857 5856 5854 5853 5851 5850 5849 5848 5847 5845 5844 5843 5841 5840 5839 5838 5837 5835 5834 5834 5833 5833 5834 5834 5835 5836 5836 5837 5838 5839 5840 5840 5841 5842 5842 5843 5844 5845 5847 5848 5849
5855 5855 5854 5852 5851 5849 5848 5847 5845 5844 5843 5841 5840 5839 5837 5836 5835 5833 5832 5831 5830 5829 5829 5829 5829 5829 5830 5831 5832 5832 5833 5834 5835 5836 5837 5837 5838 5839 5839 5840 5842 5843 5844
5852 5851 5850 5849 5848 5846 5845 5843 5842 5840 5839 5837 5836 5835 5833 5832 5830 5829 5828 5826 5825 5825 5825 5825 5825 5825 5826 5826 5827 5827 5828 5829 5830 5831 5832 5833 5833 5834 5835 5836 5837 5838 5839
5849 5848 5847 5845 5844 5842 5841 5839 5838 5836 5835 5834 5832 5831 5830 5828 5826 5825 5823 5822 5822 5821 5821 5821 5821 5821 5821 5822 5822 5822 5823 5824 5825 5825 5826 5827 5828 5829 5830 5830 5831 5832 5833
5846 5844 5843 5841 5840 5838 5837 5835 5834 5833 5831 5830 5828 5827 5826 5824 5823 5821 5819 5818 5818 5818 5817 5817 5816 5817 5817 5817 5817 5817 5818 5818 5819 5820 5821 5822 5822 5823 5824 5825 5826 5827 5828
5842 5840 5839 5837 5836 5834 5833 5831 5830 5829 5827 5826 5824 5823 5821 5820 5819 5817 5816 5814 5814 5813 5813 5813 5813 5813 5812 5812 5812 5812 5813 5814 5814 5815 5816 5817 5817 5818 5818 5819 5820 5821 5822
5837 5836 5835 5833 5832 5830 5828 5827 5826 5824 5823 5822 5820 5819 5817 5816 5815 5813 5812 5811 5810 5809 5809 5809 5809 5809 5808 5808 5808 5808 5808 5809 5809 5810 5811 5811 5812 5812 5813 5814 5815 5816 5817
5833 5832 5830 5829 5828 5826 5824 5823 5821 5820 5819 5818 5816 5815 5813 5811 5810 5809 5808 5807 5806 5805 5805 5804 5804 5804 5803 5803 5803 5803 5803 5804 5805 5805 5806 5806 5806 5807 5808 5808 5809 5810 5811
5829 5827 5826 5825 5823 5822 5820 5818 5817 5816 5815 5813 5812 5811 5809 5807 5806 5805 5804 5803 5802 5801 5800 5800 5799 5799 5799 5798 5798 5798 5798 5799 5799 5800 5800 5800 5801 5801 5802 5803 5803 5804 5805
5824 5823 5822 5820 5818 5817 5815 5814 5812 5811 5810 5809 5807 5806 5805 5803 5802 5801 5800 5798 5797 5796 5796 5795 5795 5794 5794 5794 5793 5793 5793 5793 5794 5794 5794 5794 5795 5795 5796 5796 5797 5798 5798